• In Germany
  • List of Countries
  • For 7 days
  • Water Temperature
  • Satellite Maps
  • Weather Map
  • Weather Widgets
  • user-avatar
    Login

    Hourly Weather Ilebo

    Today, 22 February, Thursday

    Time Temperature Precipitation Wind Pressure Humidity
    00:00 +28°C° 0.1 mm 1 mps 719 mmHg 71%
    01:00 +28°C° 0 mm 1 mps 719 mmHg 72%
    02:00 +28°C° 0 mm 1 mps 719 mmHg 72%
    03:00 +28°C° 0 mm 1 mps 719 mmHg 71%
    04:00 +28°C° 0 mm 1 mps 719 mmHg 70%
    05:00 +28°C° 0 mm 1 mps 720 mmHg 70%
    06:00 +28°C° 0 mm 2 mps 720 mmHg 70%
    07:00 +28°C° 0 mm 2 mps 720 mmHg 69%
    08:00 +31°C° 0 mm 2 mps 720 mmHg 60%
    09:00 +34°C° 0 mm 2 mps 721 mmHg 52%
    10:00 +36°C° 0 mm 3 mps 721 mmHg 43%
    11:00 +37°C° 0 mm 2 mps 720 mmHg 39%
    12:00 +39°C° 0 mm 1 mps 719 mmHg 35%
    13:00 +37°C° 0 mm 0 mps 719 mmHg 31%
    14:00 +39°C° 0.1 mm 1 mps 718 mmHg 34%
    15:00 +36°C° 0.1 mm 1 mps 718 mmHg 38%
    16:00 +36°C° 0.1 mm 2 mps 717 mmHg 41%
    17:00 +34°C° 2.5 mm 2 mps 717 mmHg 50%
    18:00 +31°C° 2.5 mm 2 mps 718 mmHg 60%
    19:00 +29°C° 2.5 mm 2 mps 718 mmHg 69%
    20:00 +28°C° 1.1 mm 2 mps 718 mmHg 71%
    21:00 +28°C° 1.1 mm 2 mps 719 mmHg 72%
    22:00 +28°C° 1.1 mm 2 mps 720 mmHg 74%
    23:00 +28°C° 0 mm 2 mps 719 mmHg 74%

    Tomorrow, 23 February, Friday

    Time Temperature Precipitation Wind Pressure Humidity
    00:00 +27°C° 0 mm 1 mps 719 mmHg 75%
    01:00 +27°C° 0 mm 1 mps 719 mmHg 75%
    02:00 +27°C° 0 mm 1 mps 719 mmHg 77%
    03:00 +26°C° 0 mm 1 mps 718 mmHg 78%
    04:00 +26°C° 0 mm 1 mps 718 mmHg 80%
    05:00 +26°C° 0 mm 2 mps 719 mmHg 79%
    06:00 +27°C° 0 mm 2 mps 719 mmHg 78%
    07:00 +27°C° 0 mm 2 mps 720 mmHg 77%
    08:00 +29°C° 0 mm 3 mps 720 mmHg 68%
    09:00 +33°C° 0 mm 3 mps 720 mmHg 59%
    10:00 +35°C° 0 mm 3 mps 721 mmHg 50%
    11:00 +37°C° 0 mm 3 mps 720 mmHg 43%
    12:00 +39°C° 0 mm 2 mps 719 mmHg 37%
    13:00 +41°C° 0 mm 2 mps 718 mmHg 31%
    14:00 +40°C° 0 mm 2 mps 718 mmHg 33%
    15:00 +39°C° 0 mm 2 mps 717 mmHg 35%
    16:00 +37°C° 0 mm 2 mps 717 mmHg 37%
    17:00 +34°C° 0.8 mm 1 mps 717 mmHg 45%
    18:00 +32°C° 0.8 mm 1 mps 717 mmHg 53%
    19:00 +30°C° 0.8 mm 1 mps 718 mmHg 61%
    20:00 +29°C° 5.5 mm 2 mps 718 mmHg 69%
    21:00 +28°C° 5.5 mm 2 mps 719 mmHg 77%
    22:00 +27°C° 5.5 mm 3 mps 720 mmHg 84%
    23:00 +27°C° 4.3 mm 3 mps 720 mmHg 86%

    Day after tomorrow, 24 February, Saturday

    Time Temperature Precipitation Wind Pressure Humidity
    00:00 +26°C° 4.3 mm 3 mps 720 mmHg 87%
    01:00 +26°C° 4.3 mm 3 mps 720 mmHg 88%
    02:00 +26°C° 0.2 mm 3 mps 719 mmHg 89%
    03:00 +26°C° 0.2 mm 3 mps 719 mmHg 89%
    04:00 +26°C° 0.2 mm 3 mps 719 mmHg 89%
    05:00 +26°C° 0 mm 3 mps 720 mmHg 88%
    06:00 +26°C° 0 mm 3 mps 721 mmHg 87%
    07:00 +26°C° 0 mm 2 mps 721 mmHg 86%
    08:00 +27°C° 0 mm 3 mps 722 mmHg 80%
    09:00 +28°C° 0 mm 3 mps 723 mmHg 75%
    10:00 +29°C° 0 mm 3 mps 723 mmHg 69%
    11:00 +31°C° 0.2 mm 3 mps 722 mmHg 64%
    12:00 +33°C° 0.2 mm 3 mps 721 mmHg 58%
    13:00 +34°C° 0.2 mm 3 mps 721 mmHg 53%
    14:00 +34°C° 0 mm 3 mps 720 mmHg 53%
    15:00 +34°C° 0 mm 3 mps 719 mmHg 52%
    16:00 +34°C° 0 mm 3 mps 719 mmHg 52%
    17:00 +31°C° 0.4 mm 2 mps 719 mmHg 59%
    18:00 +30°C° 0.4 mm 2 mps 720 mmHg 66%
    19:00 +28°C° 0.4 mm 1 mps 720 mmHg 73%
    20:00 +28°C° 0.1 mm 2 mps 720 mmHg 74%
    21:00 +27°C° 0.1 mm 2 mps 721 mmHg 76%
    22:00 +27°C° 0.1 mm 2 mps 721 mmHg 78%
    23:00 +27°C° 0 mm 3 mps 721 mmHg 79%

    25 February, Sunday

    Time Temperature Precipitation Wind Pressure Humidity
    00:00 +26°C° 0 mm 3 mps 721 mmHg 80%
    01:00 +26°C° 0 mm 3 mps 721 mmHg 81%
    02:00 +26°C° 0 mm 2 mps 721 mmHg 83%
    03:00 +25°C° 0 mm 2 mps 721 mmHg 85%
    04:00 +25°C° 0 mm 1 mps 720 mmHg 87%
    05:00 +25°C° 0 mm 2 mps 721 mmHg 85%
    06:00 +25°C° 0 mm 2 mps 722 mmHg 84%
    07:00 +25°C° 0 mm 2 mps 722 mmHg 83%
    08:00 +27°C° 0 mm 2 mps 723 mmHg 74%
    09:00 +29°C° 0 mm 2 mps 723 mmHg 65%
    10:00 +31°C° 0 mm 2 mps 724 mmHg 56%
    11:00 +34°C° 0 mm 3 mps 723 mmHg 52%
    12:00 +35°C° 0 mm 3 mps 722 mmHg 48%
    13:00 +36°C° 0 mm 4 mps 721 mmHg 43%
    14:00 +36°C° 0 mm 3 mps 721 mmHg 44%
    15:00 +36°C° 0 mm 3 mps 720 mmHg 44%
    16:00 +35°C° 0 mm 2 mps 720 mmHg 44%
    17:00 +34°C° 0 mm 2 mps 720 mmHg 50%
    18:00 +31°C° 0 mm 2 mps 720 mmHg 55%
    19:00 +29°C° 0 mm 1 mps 721 mmHg 61%
    20:00 +28°C° 0.2 mm 1 mps 721 mmHg 64%
    21:00 +28°C° 0.2 mm 1 mps 721 mmHg 68%
    22:00 +27°C° 0.2 mm 1 mps 721 mmHg 71%
    23:00 +27°C° 0.1 mm 1 mps 721 mmHg 72%

    26 February, Monday

    Time Temperature Precipitation Wind Pressure Humidity
    00:00 +26°C° 0.1 mm 2 mps 721 mmHg 74%
    01:00 +26°C° 0.1 mm 2 mps 720 mmHg 75%
    02:00 +25°C° 0 mm 2 mps 720 mmHg 76%
    03:00 +25°C° 0 mm 2 mps 720 mmHg 78%
    04:00 +25°C° 0 mm 2 mps 720 mmHg 79%
    05:00 +25°C° 0.1 mm 2 mps 721 mmHg 78%
    06:00 +25°C° 0.1 mm 2 mps 722 mmHg 78%
    07:00 +25°C° 0.1 mm 2 mps 722 mmHg 78%
    08:00 +27°C° 0 mm 2 mps 723 mmHg 72%
    09:00 +28°C° 0 mm 2 mps 723 mmHg 67%
    10:00 +29°C° 0 mm 2 mps 724 mmHg 62%
    11:00 +29°C° 0.1 mm 3 mps 723 mmHg 61%
    12:00 +30°C° 0.1 mm 3 mps 722 mmHg 59%
    13:00 +30°C° 0.1 mm 3 mps 721 mmHg 58%
    14:00 +31°C° 0 mm 3 mps 721 mmHg 56%
    15:00 +31°C° 0 mm 3 mps 721 mmHg 53%
    16:00 +32°C° 0 mm 2 mps 720 mmHg 50%
    17:00 +30°C° 0 mm 2 mps 721 mmHg 57%
    18:00 +28°C° 0 mm 1 mps 721 mmHg 64%
    19:00 +26°C° 0 mm 1 mps 721 mmHg 71%
    20:00 +26°C° 0 mm 1 mps 721 mmHg 73%
    21:00 +26°C° 0 mm 1 mps 721 mmHg 74%
    22:00 +25°C° 0 mm 1 mps 721 mmHg 75%
    23:00 +25°C° 0 mm 1 mps 721 mmHg 74%

    27 February, Tuesday

    Time Temperature Precipitation Wind Pressure Humidity
    00:00 +25°C° 0 mm 1 mps 721 mmHg 73%
    01:00 +25°C° 0 mm 1 mps 721 mmHg 73%
    02:00 +25°C° 0 mm 1 mps 721 mmHg 72%
    03:00 +25°C° 0 mm 1 mps 721 mmHg 72%
    04:00 +25°C° 0 mm 1 mps 721 mmHg 72%
    05:00 +25°C° 0 mm 1 mps 722 mmHg 71%
    06:00 +25°C° 0 mm 1 mps 722 mmHg 71%
    07:00 +26°C° 0 mm 1 mps 723 mmHg 70%
    08:00 +27°C° 0.1 mm 1 mps 723 mmHg 66%
    09:00 +29°C° 0.1 mm 2 mps 723 mmHg 63%
    10:00 +30°C° 0.1 mm 2 mps 724 mmHg 59%
    11:00 +32°C° 0.1 mm 2 mps 723 mmHg 52%
    12:00 +35°C° 0.1 mm 2 mps 722 mmHg 45%
    13:00 +37°C° 0.1 mm 2 mps 721 mmHg 39%
    14:00 +36°C° 0 mm 2 mps 721 mmHg 41%
    15:00 +34°C° 0 mm 2 mps 721 mmHg 44%
    16:00 +32°C° 0 mm 2 mps 721 mmHg 47%
    17:00 +31°C° 0 mm 2 mps 721 mmHg 53%
    18:00 +29°C° 0 mm 2 mps 721 mmHg 59%
    19:00 +28°C° 0 mm 2 mps 721 mmHg 65%
    20:00 +27°C° 0 mm 2 mps 721 mmHg 70%
    21:00 +26°C° 0 mm 2 mps 721 mmHg 75%
    22:00 +25°C° 0 mm 1 mps 721 mmHg 80%
    23:00 +25°C° 0 mm 1 mps 721 mmHg 82%
    Show more